ROMMA est une association bénévole à but non lucratif. Votre soutien est indispensable : ADHERER à ROMMA ou FAIRE un DON

Chambon - (38, Isère)

Oisans (2460 m)   Longitude: 06° 10' 42" E   Latitude: 45° 01' 32" N Station partenaire n°803
 

Détail journalier du     <<     >>

Température Humidité Vent Dir Rafale Dir. rafale Neige 1 Neige 2
Heure (°C) (%) (km/h) (km/h) (cm) (cm)
01:00 11.87010S33S42
02:00 12.16813S30SSO42
03:00 12.66017SSO36SSO42
04:00 12.35811SSO30SSO32
05:00 12.65610S30SSO32
06:00 12.3618S32SSO41
07:00 9.18217SSO50SSO33
08:00 9.87617S54S41
09:00 9.98211SO37SO31
10:00 11.58011SSO31SSO32
11:00 13.7737S25S41
12:00 14.1747SSO31OSO11
13:00 15.66910SSO29SO01
14:00 15.46015SSO42OSO31
15:00 15.95122SSO51OSO21
16:00 16.15324OSO48OSO31
17:00 15.45627OSO48OSO31
18:00 15.65328OSO49OSO31
19:00 14.35623SSO48SSO31
20:00 13.75730SSO61SSO31
21:00 13.35940SSO68SO11
22:00 12.76126S66SSO31
23:00 12.26615S45SSO31
minuit 11.3709S41S41

Graphique du 06-08-2019

 

Serveur OMMA